Chester, SC

5:40 AM EDT on October 15, 2019 (GMT -0400)
Chester

Weather History for KDCM - August, 2019

Change the Weather History Date:

Tuesday, August 20, 2019

  Actual Average (WUND) Record (WUND)
Temperature  
Mean Temperature 74 °F -  
Max Temperature 80 °F - - (-1)
Min Temperature 69 °F - - (-1)
Cooling Degree Days 10    
Growing Degree Days 24 (Base 50)    
Moisture  
Dew Point 72 °F    
Average Humidity 94    
Maximum Humidity 100    
Minimum Humidity 65    
Precipitation  
Precipitation 0.53 in - - ()
Sea Level Pressure  
Sea Level Pressure 30.13 in    
Wind  
Wind Speed 1 mph (SSE)    
Max Wind Speed 9 mph    
Max Gust Speed -    
Visibility 9 miles    
Events Rain , Thunderstorm    
Averages and records for this station are not official NWS values.
T = Trace of Precipitation, MM = Missing Value Source: NWS Daily Summary

Daily Weather History Graph

Daily Weather History Graph

Search for Another Location

Airport or City:

Astronomy

Aug. 20, 2019 Rise Set
Actual Time 6:48 AM EDT 8:07 PM EDT
Civil Twilight 6:22 AM EDT 8:33 PM EDT
Nautical Twilight 5:50 AM EDT 9:04 PM EDT
Astronomical Twilight 5:17 AM EDT 9:37 PM EDT
Moon 11:06 PM EDT (8/20) 11:15 AM EDT (8/20)
Length of Visible Light 14h 11m
Length of Day
13h 18m
Waning Gibbous, 78% of the Moon is Illuminated
Aug 20
Waning Gibbous
Aug 23
Last Quarter
Aug 30
New
Sep 5
First Quarter
Sep 14
Full

Hourly Weather History & Observations

Time (EDT) Temp. Heat Index Dew Point Humidity Pressure Visibility Wind Dir Wind Speed Gust Speed Precip Events Conditions
12:15 AM 71.6 °F - 71.6 °F 100% 30.12 in 10.0 mi Calm Calm - N/A Thunderstorm Clear
12:35 AM 71.6 °F - 71.6 °F 100% 30.11 in 10.0 mi Calm Calm - N/A   Clear
12:55 AM 71.6 °F - 71.6 °F 100% 30.11 in 10.0 mi Calm Calm - N/A   Clear
1:55 AM 71.6 °F - 71.6 °F 100% 30.13 in 10.0 mi Calm Calm - N/A   Clear
2:15 AM 71.6 °F - 71.6 °F 100% 30.12 in 10.0 mi Calm Calm - N/A   Clear
2:35 AM 71.6 °F - 71.6 °F 100% 30.12 in 10.0 mi Calm Calm - N/A   Clear
2:55 AM 71.6 °F - 71.6 °F 100% 30.12 in 10.0 mi Calm Calm - N/A   Clear
3:15 AM 71.6 °F - 71.6 °F 100% 30.12 in 10.0 mi Calm Calm - N/A Rain Light Rain
3:35 AM 71.6 °F - 71.6 °F 100% 30.12 in 10.0 mi Calm Calm - N/A   Clear
3:55 AM 71.6 °F - 71.6 °F 100% 30.12 in 10.0 mi Calm Calm - N/A Thunderstorm Scattered Clouds
4:15 AM 69.8 °F - 69.8 °F 100% 30.12 in 10.0 mi Calm Calm - N/A   Scattered Clouds
4:35 AM 69.8 °F - 69.8 °F 100% 30.12 in 10.0 mi SSW 3.5 mph - N/A   Clear
4:55 AM 69.8 °F - 69.8 °F 100% 30.13 in 10.0 mi Calm Calm - N/A   Clear
5:15 AM 71.6 °F - 71.6 °F 100% 30.13 in 10.0 mi Calm Calm - N/A Rain Light Rain
5:55 AM 71.6 °F - 71.6 °F 100% 30.13 in 10.0 mi Calm Calm - 0.01 in   Scattered Clouds
6:15 AM 71.6 °F - 71.6 °F 100% 30.14 in 10.0 mi Calm Calm - N/A   Clear
6:35 AM 71.6 °F - 71.6 °F 100% 30.14 in 7.0 mi Calm Calm - N/A   Drizzle
7:15 AM 71.6 °F - 71.6 °F 100% 30.13 in 10.0 mi Calm Calm - N/A   Clear
7:35 AM 71.6 °F - 71.6 °F 100% 30.14 in 10.0 mi Calm Calm - N/A   Clear
7:55 AM 71.6 °F - 71.6 °F 100% 30.14 in 10.0 mi Calm Calm - N/A   Scattered Clouds
8:15 AM 71.6 °F - 71.6 °F 100% 30.16 in 10.0 mi South 3.5 mph - N/A   Clear
8:35 AM 71.6 °F - 71.6 °F 100% 30.17 in 10.0 mi Calm Calm - N/A   Clear
8:55 AM 73.4 °F - 73.4 °F 100% 30.17 in 10.0 mi South 3.5 mph - N/A Rain Light Rain
9:15 AM 73.4 °F - 73.4 °F 100% 30.17 in 10.0 mi Calm Calm - N/A   Clear
9:35 AM 73.4 °F - 73.4 °F 100% 30.16 in 10.0 mi Calm Calm - N/A Rain Light Rain
9:55 AM 73.4 °F - 71.6 °F 94% 30.16 in 10.0 mi SSE 3.5 mph - N/A   Clear
10:15 AM 73.4 °F - 71.6 °F 94% 30.16 in 10.0 mi Calm Calm - N/A   Clear
10:35 AM 75.2 °F - 71.6 °F 89% 30.16 in 10.0 mi Calm Calm - N/A   Clear
10:55 AM 75.2 °F - 73.4 °F 94% 30.16 in 10.0 mi Calm Calm - N/A   Clear
11:15 AM 77.0 °F - 73.4 °F 89% 30.17 in 10.0 mi Calm Calm - N/A   Light Drizzle
11:35 AM 77.0 °F - 73.4 °F 89% 30.17 in 10.0 mi SE 3.5 mph - N/A   Clear
12:15 PM 77.0 °F - 69.8 °F 78% 30.17 in 10.0 mi SE 3.5 mph - N/A   Scattered Clouds
12:35 PM 77.0 °F - 71.6 °F 83% 30.17 in 10.0 mi Calm Calm - N/A   Mostly Cloudy
12:55 PM 78.8 °F - 69.8 °F 74% 30.18 in 10.0 mi Calm Calm - N/A   Mostly Cloudy
1:15 PM 78.8 °F - 69.8 °F 74% 30.17 in 10.0 mi Calm Calm - N/A   Mostly Cloudy
1:35 PM 78.8 °F - 69.8 °F 74% 30.17 in 10.0 mi Calm Calm - N/A   Overcast
2:15 PM 80.6 °F 83.9 °F 69.8 °F 70% 30.16 in 10.0 mi ESE 4.6 mph - N/A Thunderstorm Thunderstorm
2:35 PM 80.6 °F 83.9 °F 69.8 °F 70% 30.15 in 10.0 mi ESE 8.1 mph - N/A Thunderstorm Mostly Cloudy
2:55 PM 80.6 °F 83.9 °F 69.8 °F 70% 30.14 in 10.0 mi SE 6.9 mph - N/A Thunderstorm Thunderstorm
3:15 PM 80.6 °F 83.2 °F 68.0 °F 65% 30.14 in 10.0 mi SE 8.1 mph - N/A Thunderstorm Thunderstorm
3:35 PM 80.6 °F 83.9 °F 69.8 °F 70% 30.12 in 10.0 mi ESE 9.2 mph - N/A   Mostly Cloudy
3:55 PM 80.6 °F 83.9 °F 69.8 °F 70% 30.12 in 10.0 mi SSE 5.8 mph - N/A Thunderstorm Thunderstorm
4:15 PM 78.8 °F - 69.8 °F 74% 30.12 in 10.0 mi South 3.5 mph - N/A Rain , Thunderstorm Light Thunderstorms and Rain
4:35 PM 77.0 °F - 77.0 °F 100% 30.12 in 10.0 mi Calm Calm - N/A Thunderstorm Mostly Cloudy
4:55 PM 77.0 °F - 77.0 °F 100% 30.11 in 10.0 mi Calm Calm - N/A Thunderstorm Thunderstorm
5:15 PM 77.0 °F - 77.0 °F 100% 30.10 in 10.0 mi NNW 3.5 mph - N/A Thunderstorm Mostly Cloudy
5:35 PM 78.8 °F - 77.0 °F 94% 30.10 in 10.0 mi Calm Calm - 0.01 in Rain , Thunderstorm Rain
5:55 PM 77.0 °F - 77.0 °F 100% 30.12 in 10.0 mi South 5.8 mph - 0.02 in Thunderstorm Overcast
6:15 PM 77.0 °F - 73.4 °F 89% 30.12 in 10.0 mi WSW 4.6 mph - N/A Rain , Thunderstorm Thunderstorms and Rain
6:35 PM 75.2 °F - 73.4 °F 94% 30.12 in 10.0 mi Calm Calm - N/A Thunderstorm Drizzle
6:55 PM 73.4 °F - 73.4 °F 100% 30.12 in 10.0 mi Calm Calm - N/A   Drizzle
7:15 PM 73.4 °F - 73.4 °F 100% 30.12 in 10.0 mi Calm Calm - 0.01 in Rain , Thunderstorm Light Thunderstorms and Rain
7:35 PM 73.4 °F - 73.4 °F 100% 30.12 in 4.0 mi Calm Calm - 0.03 in Rain , Thunderstorm Rain
7:55 PM 73.4 °F - 73.4 °F 100% 30.10 in 5.0 mi Calm Calm - 0.06 in Rain , Thunderstorm Thunderstorms and Rain
8:15 PM 73.4 °F - 73.4 °F 100% 30.11 in 10.0 mi Calm Calm - 0.01 in Rain , Thunderstorm Light Thunderstorms and Rain
8:35 PM 73.4 °F - 73.4 °F 100% 30.11 in 10.0 mi Calm Calm - 0.02 in Rain , Thunderstorm Light Thunderstorms and Rain
8:55 PM 73.4 °F - 73.4 °F 100% 30.11 in 10.0 mi Calm Calm - 0.03 in Rain , Thunderstorm Light Thunderstorms and Rain
9:15 PM 73.4 °F - 73.4 °F 100% 30.11 in 4.0 mi Calm Calm - 0.04 in Rain Rain
9:35 PM 73.4 °F - 73.4 °F 100% 30.10 in 10.0 mi Calm Calm - 0.05 in Rain , Thunderstorm Rain
9:55 PM 73.4 °F - 73.4 °F 100% 30.11 in 10.0 mi Calm Calm - 0.05 in Thunderstorm Scattered Clouds
10:15 PM 71.6 °F - 71.6 °F 100% 30.12 in 10.0 mi Calm Calm - N/A Thunderstorm Mostly Cloudy
10:35 PM 73.4 °F - 73.4 °F 100% 30.12 in 10.0 mi Calm Calm - N/A   Overcast
10:55 PM 73.4 °F - 73.4 °F 100% 30.12 in 3.0 mi East 4.6 mph - 0.06 in Rain , Thunderstorm Rain
11:15 PM 73.4 °F - 73.4 °F 100% 30.13 in 10.0 mi West 3.5 mph - 0.01 in   Overcast
11:35 PM 71.6 °F - 71.6 °F 100% 30.14 in 4.0 mi SSW 4.6 mph - 0.26 in Rain , Thunderstorm Heavy Thunderstorms and Rain
11:55 PM 69.8 °F - 69.8 °F 100% 30.12 in 5.0 mi Calm Calm - 0.30 in Rain , Thunderstorm Heavy Thunderstorms and Rain